Stations météo

réclame
Mon MeteoGroup
Sveg A, Suède (2327): Température de l'air & dewpoint: 14.11.2017 01:00:00 - 20.11.2017 01:00:00 (CET)Sveg A, Suède (2327): Vitesse du vent & gusts: 14.11.2017 01:00:00 - 20.11.2017 01:00:00 (CET)Sveg A, Suède (2327): Direction du vent: 14.11.2017 01:00:00 - 20.11.2017 01:00:00 (CET)Sveg A, Suède (2327): reduced air pressure: 14.11.2017 01:00:00 - 20.11.2017 01:00:00 (CET)Sveg A, Suède (2327): visibility: 14.11.2017 01:00:00 - 20.11.2017 01:00:00 (CET)Sveg A, Suède (2327): Quantités de précipitations: 14.11.2017 01:00:00 - 20.11.2017 01:00:00 (CET)
Date & Time tt [°C] td [°C] ff [km/h] ff [knt] fx [km/h] fx [knt] dd ppp [hPa] vv [km] rr [mm]
20.11.2017 01:00:00 -5,3 -7,9 13 7 23 13 NNW 1008,4 49 0,0
20.11.2017 00:00:00 -5,1 -7,8 13 7 21 12 NNW 1008,4 50 0,0
19.11.2017 23:00:00 -5,0 -7,6 9 5 21 12 NW 1008,1 50 0,0
19.11.2017 22:00:00 -4,8 -7,4 12 7 24 13 NW 1007,9 50 0,0
19.11.2017 21:00:00 -4,6 -7,4 9 5 29 16 NNW 1007,3 50 0,0
19.11.2017 20:00:00 -4,6 -7,2 15 8 30 16 NNW 1006,7 50 0,0
19.11.2017 19:00:00 -4,4 -7,2 18 10 33 18 NNW 1006,3 50 0,0
19.11.2017 18:00:00 -4,4 -6,8 11 6 27 15 NNW 1006,0 50 0,0
19.11.2017 17:00:00 -4,3 -6,8 18 10 32 17 N 1005,5 50 0,0
19.11.2017 16:00:00 -4,3 -7,1 18 10 41 22 NNW 1005,2 50 0,0
19.11.2017 15:00:00 -4,3 -6,8 21 12 36 20 NNW 1004,8 45 0,0
19.11.2017 14:00:00 -4,5 -6,9 16 9 37 20 N 1004,4 50 0,0
19.11.2017 13:00:00 -4,5 -7,1 16 9 47 25 N 1004,1 50 0,0
19.11.2017 12:00:00 -4,1 -6,6 27 15 46 25 N 1003,5 50 0,0
19.11.2017 11:00:00 -3,8 -6,1 21 11 40 22 NNW 1003,1 50 0,0
19.11.2017 10:00:00 -3,9 -6,0 20 11 36 19 NNW 1002,6 50 0,0
19.11.2017 09:00:00 -4,1 -6,1 21 11 32 18 NNW 1002,1 16 0,0
19.11.2017 08:00:00 -4,5 -6,5 16 9 29 16 NNW 1001,8 27 0,0
19.11.2017 07:00:00 -4,7 -6,8 14 7 27 15 NW 1001,3 46 0,0
19.11.2017 06:00:00 -4,9 -7,0 13 7 29 16 NW 1001,2 50 0,0
19.11.2017 05:00:00 -4,9 -6,6 12 7 28 15 NW 1000,9 50 0,0
19.11.2017 04:00:00 -4,9 -6,1 14 7 27 15 N 1000,5 50 0,0
19.11.2017 03:00:00 -4,4 -6,1 12 6 19 11 NW 999,7 16 0,0
19.11.2017 02:00:00 -4,5 -5,5 9 5 18 10 NW 999,3 19 0,1
19.11.2017 01:00:00 -4,4 -5,1 8 5 14 7 NW 998,8 31 0,0
19.11.2017 00:00:00 -4,3 -4,7 5 3 15 8 WNW 998,1 50 0,0
18.11.2017 23:00:00 -4,4 -4,8 11 6 17 9 WNW 997,4 50 0,0
18.11.2017 22:00:00 -4,7 -5,1 9 5 15 8 NW 997,3 47 0,0
18.11.2017 21:00:00 -5,6 -6,1 5 3 11 6 W 996,7 45 0,0
18.11.2017 20:00:00 -6,0 -6,5 6 4 10 5 W 995,7 50 0,0
18.11.2017 19:00:00 -5,6 -6,1 6 3 8 4 W 995,3 35 0,0
18.11.2017 18:00:00 -6,3 -6,8 4 2 9 5 W 995,0 42 0,0
18.11.2017 17:00:00 -6,3 -6,8 4 2 8 4 W 994,7 0,8 0,0
18.11.2017 16:00:00 -6,1 -6,6 4 2 7 4 W 994,6 0,2 0,0
18.11.2017 15:00:00 -5,3 -5,7 4 2 9 5 WNW 994,2 0,2 0,0
18.11.2017 14:00:00 -4,8 -5,1 3 2 10 5 W 993,8 0,8 0,0
18.11.2017 13:00:00 -4,6 -4,9 5 3 9 5 W 993,8 1,0 0,0
18.11.2017 12:00:00 -4,6 -4,9 5 3 10 6 WSW 994,1 9 0,0
18.11.2017 11:00:00 -5,8 -6,7 4 2 10 5 SW 994,6 50 0,0
18.11.2017 10:00:00 -7,6 -8,4 5 3 10 5 W 994,9 50 0,0
18.11.2017 09:00:00 -9,5 -10,6 5 3 8 5 W 995,2 50 0,0
18.11.2017 08:00:00 -6,9 -7,6 6 3 8 5 N 995,1 50 0,0
18.11.2017 07:00:00 -6,3 -7,0 4 2 8 5 S 994,8 41 0,0
18.11.2017 06:00:00 -6,5 -7,0 5 3 9 5 E 995,2 50 0,0
18.11.2017 05:00:00 -7,0 -7,4 8 5 11 6 ENE 995,4 50 0,0
18.11.2017 04:00:00 -5,7 -6,1 2 1 13 7 NNW 995,8 46 0,0
18.11.2017 03:00:00 -4,3 -5,1 3 1 11 6 SSE 996,4 50 0,0
18.11.2017 02:00:00 -4,4 -5,6 5 3 9 5 NNW 997,0 50 0,0
18.11.2017 01:00:00 -1,9 -3,6 4 2 20 11 NNE 997,1 50 0,0
18.11.2017 00:00:00 -0,8 -3,7 6 3 29 15 W 997,8 50 0,0
17.11.2017 23:00:00 0,1 -3,5 16 9 32 17 WSW 997,7 50 0,0
17.11.2017 22:00:00 -0,4 -3,8 13 7 26 14 W 998,4 45 0,0
17.11.2017 21:00:00 -1,9 -4,2 11 6 18 10 N 999,1 48 0,0
17.11.2017 20:00:00 -1,7 -4,2 8 5 16 8 W 998,8 50 0,0
17.11.2017 19:00:00 -0,8 -4,2 6 3 22 12 W 999,0 50 0,0
17.11.2017 18:00:00 -1,0 -4,2 3 1 22 12 NE 999,3 50 0,0
17.11.2017 17:00:00 0,6 -3,7 12 7 27 14 WSW 999,4 33 0,0
17.11.2017 16:00:00 -0,1 -3,8 7 4 25 13 W 999,3 50 0,0
17.11.2017 15:00:00 1,6 -3,3 19 11 31 17 WSW 999,1 50 0,0
17.11.2017 14:00:00 1,8 -3,1 23 13 42 23 W 999,4 50 0,0
17.11.2017 13:00:00 1,5 -3,6 18 10 36 20 W 999,2 48 0,0
17.11.2017 12:00:00 1,3 -4,6 19 10 28 15 W 999,8 50 0,0
17.11.2017 11:00:00 -0,2 -5,0 14 8 29 16 W 1000,0 48 0,0
17.11.2017 10:00:00 -0,2 -5,6 14 8 30 16 WSW 999,7 47 0,0
17.11.2017 09:00:00 -0,2 -5,8 16 9 30 16 WSW 999,5 50 0,0
17.11.2017 08:00:00 0,1 -5,5 18 10 30 16 W 999,8 50 0,0
17.11.2017 07:00:00 0,6 -3,0 11 6 23 12 WSW 999,5 50 0,0
17.11.2017 06:00:00 1,2 -2,2 15 8 30 16 WSW 999,4 50 0,0
17.11.2017 05:00:00 0,4 -3,0 7 4 26 14 WSW 999,0 50 0,0
17.11.2017 04:00:00 1,2 -1,9 16 8 24 13 WSW 998,5 50 0,0
17.11.2017 03:00:00 1,8 -0,3 13 7 22 12 W 997,9 35 0,0
17.11.2017 02:00:00 1,9 0,7 13 7 22 12 WSW 997,3 42 0,0
17.11.2017 01:00:00 2,1 0,9 6 3 18 10 WSW 997,5 50 0,0
17.11.2017 00:00:00 2,2 0,9 7 4 20 11 S 997,8 50 0,0
16.11.2017 23:00:00 2,4 0,9 4 2 17 9 SSW 998,6 48 0,0
16.11.2017 22:00:00 1,7 0,8 8 5 17 9 SSE 999,8 48 0,2
16.11.2017 21:00:00 1,5 0,5 8 5 19 10 E 1001,2 14 0,1
16.11.2017 20:00:00 1,4 0,2 5 3 16 9 SE 1002,3 13 0,0
16.11.2017 19:00:00 0,5 -0,2 9 5 19 11 SSE 1004,3 9 0,1
16.11.2017 18:00:00 0,8 -2,1 11 6 19 10 SSE 1005,5 26 0,0
16.11.2017 17:00:00 0,7 -3,2 10 5 21 11 S 1006,6 48 0,0
16.11.2017 16:00:00 1,3 -3,4 11 6 23 12 S 1007,6 50 0,0
16.11.2017 15:00:00 0,3 -4,3 10 5 16 9 SE 1008,9 50 0,0
16.11.2017 14:00:00 0,4 -5,0 9 5 19 10 SSE 1010,4 49 0,0
16.11.2017 13:00:00 -0,1 -5,5 6 4 13 7 SE 1011,7 50 0,0
16.11.2017 12:00:00 -1,6 -4,9 5 3 9 5 E 1012,9 50 0,0
16.11.2017 11:00:00 -4,3 -6,1 3 2 5 3 ENE 1014,2 50 0,0
16.11.2017 10:00:00 -5,1 -6,3 4 2 11 6 NNW 1014,8 50 0,0
16.11.2017 09:00:00 -8,7 -9,5 6 3 9 5 E 1015,9 44 0,0
16.11.2017 08:00:00 -7,6 -8,7 5 3 7 4 N 1016,2 41 0,0
16.11.2017 07:00:00 -5,2 -6,7 3 1 15 8 SE 1016,3 50 0,0
16.11.2017 06:00:00 -5,2 -6,3 4 2 21 11 NW 1016,7 50 0,0
16.11.2017 05:00:00 -1,1 -5,5 10 5 29 16 SW 1016,2 50 0,0
16.11.2017 04:00:00 -0,3 -4,7 17 9 29 15 WSW 1015,6 50 0,0
16.11.2017 03:00:00 -0,4 -5,0 16 9 28 15 WSW 1015,6 49 0,0
16.11.2017 02:00:00 0,2 -4,8 15 8 25 13 WSW 1015,2 50 0,0
16.11.2017 01:00:00 -0,3 -4,7 16 9 31 17 W 1014,6 50 0,0
16.11.2017 00:00:00 -0,2 -5,0 16 8 24 13 WSW 1014,0 44 0,0
15.11.2017 23:00:00 -1,1 -5,1 9 5 31 17 S 1013,4 50 0,0
15.11.2017 22:00:00 0,0 -5,0 10 6 20 11 SW 1012,2 45 0,0
15.11.2017 21:00:00 -2,0 -5,7 7 4 15 8 SSE 1012,0 50 0,0
15.11.2017 20:00:00 0,1 -5,1 9 5 21 11 SW 1011,4 50 0,0
15.11.2017 19:00:00 -0,2 -5,6 10 5 23 12 SW 1011,4 50 0,0
15.11.2017 18:00:00 0,3 -5,5 10 5 30 16 WSW 1010,3 42 0,0
15.11.2017 17:00:00 0,6 -5,0 12 6 30 16 SW 1009,6 32 0,0
15.11.2017 16:00:00 0,5 -4,3 17 9 29 16 W 1009,6 50 0,0
15.11.2017 15:00:00 1,3 -4,2 17 9 34 18 W 1008,8 50 0,0
15.11.2017 14:00:00 1,9 -3,4 20 11 34 19 W 1008,2 50 0,0
15.11.2017 13:00:00 0,6 -2,0 13 7 23 12 W 1007,6 23 0,0
15.11.2017 12:00:00 -2,3 -3,3 7 4 11 6 WNW 1007,2 32 0,0
15.11.2017 11:00:00 -2,0 -2,8 6 4 11 6 NW 1006,7 50 0,0
15.11.2017 10:00:00 -3,2 -4,0 5 3 15 8 NNW 1005,8 25 0,1
15.11.2017 09:00:00 -4,8 -5,5 6 3 8 4 WNW 1005,7 4,0 0,0
15.11.2017 08:00:00 -6,7 -7,6 3 2 9 5 W 1005,7 50 0,0
15.11.2017 07:00:00 -7,3 -8,5 4 2 8 5 NNE 1005,1 44 0,0
15.11.2017 06:00:00 -7,9 -9,1 4 2 15 8 N 1005,4 50 0,0
15.11.2017 05:00:00 -7,3 -8,1 1 1 14 7 S 1006,2 50 0,0
15.11.2017 04:00:00 -8,6 -9,8 9 5 16 9 WSW 1007,1 49 0,0
15.11.2017 03:00:00 -10,0 -11,3 6 3 10 5 N 1007,9 48 0,0
15.11.2017 02:00:00 -9,6 -11,1 3 2 8 4 NW 1008,0 50 0,0
15.11.2017 01:00:00 -9,3 -10,8 4 2 6 4 NE 1007,8 50 0,0
15.11.2017 00:00:00 -9,2 -10,1 4 2 14 8 NW 1007,5 44 0,0
14.11.2017 23:00:00 -9,1 -10,3 5 3 8 5 W 1007,2 50 0,0
14.11.2017 22:00:00 -8,2 -9,5 5 3 16 8 NW 1007,0 50 0,0
14.11.2017 21:00:00 -8,9 -9,7 5 3 14 7 NNE 1006,5 50 0,0
14.11.2017 20:00:00 -10,2 -11,4 5 3 9 5 NNE 1006,2 49 0,0
14.11.2017 19:00:00 -8,6 -9,4 6 3 9 5 ENE 1005,8 50 0,0
14.11.2017 18:00:00 -6,5 -7,3 4 2 7 4 NW 1005,6 48 0,0
14.11.2017 17:00:00 -6,7 -7,5 2 1 9 5 WNW 1005,4 50 0,0
14.11.2017 16:00:00 -7,0 -7,9 5 3 8 4 NNW 1005,4 50 0,0
14.11.2017 15:00:00 -5,8 -6,7 6 4 8 4 ENE 1004,8 50 0,0
14.11.2017 14:00:00 -5,7 -6,9 3 2 6 4 SE 1004,9 50 0,0
14.11.2017 13:00:00 -6,2 -7,6 2 1 8 4 NNE 1005,3 50 0,0
14.11.2017 12:00:00 -7,1 -8,2 3 2 6 4 ESE 1006,1 50 0,0
14.11.2017 11:00:00 -9,1 -10,2 1 1 11 6 SE 1006,7 50 0,0
14.11.2017 10:00:00 -11,0 -12,3 3 1 5 3 N 1007,2 50 0,0
14.11.2017 09:00:00 -13,0 -14,6 1 1 6 3 WNW 1007,9 50 0,0
14.11.2017 08:00:00 -15,2 -17,0 1 1 4 2 W 1008,5 50 0,0
14.11.2017 07:00:00 -15,0 -16,5 2 1 6 3 WNW 1008,9 50 0,0
14.11.2017 06:00:00 -14,7 -16,2 1 1 5 3 NNW 1009,3 50 0,0
14.11.2017 05:00:00 -14,2 -15,7 4 2 5 3 W 1009,9 50 0,0
14.11.2017 04:00:00 -13,8 -15,1 3 1 7 4 NW 1010,1 50 0,0
14.11.2017 03:00:00 -13,8 -15,1 1 1 4 2 WNW 1010,6 50 0,0
14.11.2017 02:00:00 -12,7 -13,9 2 1 7 4 ESE 1011,1 50 0,0
14.11.2017 01:00:00 -11,8 -12,8 3 1 6 3 NE 1011,3 12 0,0

tt = Température de l'air
td = dewpoint
ff = Vitesse du vent
fx = gusts
dd = Direction du vent
ppp = reduced air pressure
vv = visibility
rr = Quantités de précipitations

stations d'obs. à proximité